{"data":{"norad_id":65984,"epoch":"2026-05-25T05:00:30.517056Z","epoch_age_seconds":60219,"freshness":"FRESH","line1":"1 65984U 25230L   26145.20868654 -.00007535  00000+0 -68213-2 0  9994","line2":"2 65984  81.3012 232.9624 0000467 229.5005 130.6111 13.83839493 30633","mean_motion":13.83839493,"eccentricity":4.67e-5,"inclination_deg":81.3012,"raan_deg":232.9624,"arg_perigee_deg":229.5005,"mean_anomaly_deg":130.6111,"bstar":-0.0068213,"rev_number":3063,"period_min":104.05831075671,"perigee_km":949.95779849227,"apogee_km":950.64227451148,"semimajor_km":7328.4370365019,"source":"CELESTRAK","updated_at":"2026-05-25T13:38:05.879177Z"}}